Location: Breux
(46.3269°N, 3.2993°E)
Time: 22:54:09
(UTC+00:00)

Cosmos 2333 Rocket - Pass Details

Date: 09 April 2020
Orbit: 840 x 861 km, 70.8° (Epoch: 05 June)

Event Time Altitude Azimuth Distance (km) Brightness Sun altitude
Rises 23:35:36 0° 338° (NNW) 3,406 6.3 -35.6°
Reaches altitude 10° 23:38:17 10° 347° (NNW) 2,469 5.4 -35.6°
Enters shadow 23:42:32 32° 34° (NNE) 1,408 3.6 -35.6°
